STARLINK-34893 (65752 NORAD) Tracking and Keplerian Element Data

This shows tracking and keplerian element data for the satellite.

Feedback or suggestion? Click here.




ElementValue
Catalog65752
NameSTARLINK-34893
Epoch Orbit1433
Epoch Day354.14865115
Epoch Year2025
RAAN342.4873
Inclination53.1599
Eccentricity0.0002078
Argument of Perigee79.215
Mean Anonmoly280.9085
Mean Motion15.30202246
Decay Rate0.00017826
L11 65752U 25216U 25354.14865115 .00017826 00000+0 61250-3 0 9991
L22 65752 53.1599 342.4873 0002078 79.2150 280.9085 15.30202246 14339



Live tracking and technical data element details for STARLINK-34893 (NORAD 65752). STARLINK-34893 can be tracked NOW for your location showing map with azimuth and elevation plus other details from your city location.







IsCatalogInMostPopularTable: catalog: 65752, numindb: 10
Update: records affected: 1



GetName: 65752 STARLINK-34893

Hit Count: updated at: Tue, 21 Apr 2026 20:49:41 GMT